Погода в Тбилиси

Погода в Тбилиси : погода сейчас, прогноз погоды и архив. Всё, что Вы хотите узнать о погоде в Тбилиси!

Поиск расширенной информации на нашем сайте:

Другие новости

Новости СМИ2

Главная страница сайта

Новости сайта

03.07.2017

Напоминаем, что на нашем специализированном сайте Метеоцентр.Азия вы можете получить высокодетализированные автоматические прогнозы погоды по пунктам России, СНГ и мира в авиационном формате (включающие направление и скорость ветра, видимость, явления погоды, количество и форму облачности, нижнюю и верхнюю границу облачности).

Рекомендуем: ауди БМВ мерседес кузовной ремонт

Погода в Тбилиси - сегодня

Время (UTC), дата Ветер
(°,м/с) 
Видим.   Явления Облачность Т
(°С)
Тd
(°С)
f(%) Тe
(°С)
Pmin
(гПа)
dP
(гПа)
Po
(мм)
O2
(г/м3)
Тmin Tmax R s Состояние
почвы
21 21.05.18 360 (С) н/о    8/8 600 м 
[Cu hum]
+19.5 +15.4 77 +30  1016.3  0.2  726  270           
03 22.05.18 010 (С) н/о    н/о 
[]
+18.6 +14 75 +27  1018.5  0.9  727  271           
09 22.05.18 140 (ЮВ) 20000 м    9/8 600 м кучево-дожд., средняя, верхняя 
[Cb calv|Ac lent|Ci]
+27.1 +16.3 52 +39  1017.4  -0.6  727  263           
12 22.05.18 110 (В) 20000 м    10/10 600 м 
[Sc]
+27.9 +16.3 49 +40  1015.2  -1.5  726  262           
21 22.05.18 тихо ()   н/о    9/9 600 м кучево-дожд. 
[Cb calv]
+19.9 +15.3 75 +30  1018.9  727  270           
00 23.05.18 тихо ()   н/о    8/8 600 м 
[Cu hum]
+18.9 +14.4 75 +27  1019  -0.1  727  271           
03 23.05.18 тихо ()   20000 м    10/10 600 м кучево-дожд. 
[Cb calv]
+19.1 +14.9 77 +28  1019.9  0.9  728  271           
09 23.05.18 250 (З) 20000 м    5/3 600 м верхняя 
[Cu hum|Ci]
+29.6 +15.3 42 +40  1017  -1.3  727  261           
12 23.05.18 140 (ЮВ) 10  20000 м    5/5 600 м 
[Cu hum]
+30.9 +13.6 35 +38  1015.3  -1.5  726  260           
21 23.05.18 тихо ()   н/о    4/4 600 м 
[Cu hum]
+19.6 +11.4 59 +23  1015.9  -2  725  270           
00 24.05.18 тихо ()   н/о    ясно 
+16.4 +9.9 65 +18  1016.3  -0.1  725  274           
03 24.05.18 тихо ()   20000 м    ясно 
+17.1 +10.2 64 +19  1017.1  0.7  726  273           
09 24.05.18 160 (Ю) 20000 м    3/3 600 м 
[Cu hum]
+30.5 +11.2 30 +34  1012.4  -1.4  724  260           
12 24.05.18 140 (ЮВ) 20000 м    8/8 600 м кучево-дожд. 
[Cb calv]
+30.7 +11 30 +34  1010.3  -2  722  260           
15 24.05.18 090 (В) 20000 м    6/6 600 м кучево-дожд. 
[Cb calv]
+29 +12.3 36 +34  1009.1  -1.3  721  260    +33.1       
21 24.05.18 000 (С) н/о    3/3 600 м 
[Sc diur, vesp]
+18.7 +8.9 53 +20  1010.8  -0.4  721  270           
00 25.05.18 тихо ()   н/о    3/3 600 м 
[Cu hum]
+16.5 +7 53 +17  1010.5  -0.6  721  273           
03 25.05.18 тихо ()   20000 м    8/5 600 м средняя 
[Sc|Ac lent]
+17.3 +9.5 60 +19  1009.9  -0.4  721  271           
09 25.05.18 тихо ()   20000 м    5/3 600 м верхняя 
[Cu hum|Ci]
+29.5 +14.6 40 +39  1007.4  -0.9  720  259           
12 25.05.18 160 (Ю) 20000 м    4/4 600 м 
[Cu hum]
+31.3 +15.1 38 +41  1005.9  -1.4  719  257           
21 25.05.18 тихо ()   н/о    10/10 600 м 
[Ns]
+22.2 +12.9 56 +28  1009.6  1.6  721  266           
00 26.05.18 тихо ()   н/о  в посл. час дождь  10/10 600 м 
[Ns]
+20.3 +17 81 +34  1009.9  721  267           
03 26.05.18 тихо ()   20000 м    10/10 600 м 
[Sc]
+19.9 +16 78 +32  1008.6  -1.2  720  267      0.0     
09 26.05.18 050 (СВ) 20000 м    9/8 600 м средняя, верхняя 
[Cu hum|Ac lent|Ci]
+29.1 +13.1 37 +36  1007.6  -0.2  720  260           
12 26.05.18 тихо ()   20000 м    9/9 600 м кучево-дожд. 
[Cb calv]
+29.5 +13.2 37 +36  1006.4  -1.2  719  259           
Время (UTC), дата Ветер
(°,м/с) 
Видим.   Явления Облачность Т
(°С)
Тd
(°С)
f(%) Тe
(°С)
Pmin
(гПа)
dP
(гПа)
Po
(мм)
O2
(г/м3)
Тmin Tmax R s Состояние
почвы

Для получения пояснительной информации подведите курсор к названию столбца.

ПОГОДА в Тбилиси - архив

Всё, что Вы хотите узнать о погоде в Тбилиси - удобно и подробно!

Выберите нужную дату (начиная с 1 января 2015* года) и нажмите кнопку "Найти".
Будут отображены архивные сводки погоды по пункту Тбилиси, начиная с указанной даты.


Отображать данные в формате CSV (для использования в таблицах Excel)


Внимание! Наш архив погоды предназначен исключительно для личного некоммерческого использования в познавательных целях. Если Вам необходимы официальные справки о состоянии погоды (для производственных, юридических, коммерческих и т.п. целей), обращайтесь в органы Росгидромета.

*Примечание: данная дата относится к архиву по метеостанциям СССР (Россия, СНГ, Балтия).
Архив по метеостанциям Зарубежной Европы и Азии (кроме Китая) хранится 10 дней, по другим регионам земного шара (Китай, Африка, Америка, Австралия, Океания) - 1 день.

Тбилиси - район местоположения метеостанции


Название, широта, долгота, высота метеостанции:
Тбилиси 41.7°ш. 44.8°д. 403 м над ур. моря [Грузия]

Дополнительная информация

В oтличие oт бoльшинства пoгoдных сайтoв мы публикуем пoдрoбную метеoинфoрмацию в детальнoм прoфессиoнальнoм фoрмате.

Характеристики температуры и влажнoсти вoздуха измеряются на высoте 2 м в тени вдали oт зданий и деревьев.
Скoрoсть ветра измеряется на высoте 10 м (на урoвне рoста челoвека скoрoсть ветра ниже в 1.5-2 раза). Если метеoстанция нахoдится в гoрoде или в лесу, тo скoрoсть ветра занижена на 2-4 м/с пo сравнению с oткрытым местoм. Скoрoсть ветра над акватoриями крупных рек и oзёр, а также на вершинах хoлмoв на 2-5 м/с выше, чем в oбычных услoвиях.
Атмoсфернoе давление в разных тoчках местнoсти мoжет значительнo oтличаться oт давления на метеoстанции, в зависимoсти oт услoвий рельефа (при пoдъёме на 10 м давление пoнижается примернo на 1 мм рт.ст.).